Погода в Бырдалыке

Погода в Бырдалыке : погода сейчас, прогноз погоды и архив. Всё, что Вы хотите узнать о погоде в Бырдалыке!

Хотите узнать прогноз погоды в Бырдалыке? Тогда Вам сюда: Погода в Бырдалыке

Поиск расширенной информации на нашем сайте:

Другие новости

Новости СМИ2

Главная страница сайта

Новости сайта

03.07.2017

Напоминаем, что на нашем специализированном сайте Метеоцентр.Азия вы можете получить высокодетализированные автоматические прогнозы погоды по пунктам России, СНГ и мира в авиационном формате (включающие направление и скорость ветра, видимость, явления погоды, количество и форму облачности, нижнюю и верхнюю границу облачности).


Погода в Бырдалыке - сегодня

Время (UTC), дата Ветер
(°,м/с) 
Видим.   Явления Облачность Т
(°С)
Тd
(°С)
f(%) Тe
(°С)
Pmin
(гПа)
dP
(гПа)
Po
(мм)
O2
(г/м3)
Тmin Tmax R s Состояние
почвы
12 18.11.18 320 (СЗ) 10 км    4/0 средняя 
[Ac und]
+16.3 +1.7 37 +17  1023.4  -0.4  749  284           
15 18.11.18 290 (З) 10 км    8/0 средняя 
[Ac und]
+10.3 +4.5 67 +11  1024.4  0.5  749  290    +16.6       
18 18.11.18 110 (В) 10 км    ясно 
+6.2 +3.1 81 +7  1024.7  -0.1  749  295    +16.6       
21 18.11.18 050 (СВ) 10 км    ясно 
+4.4 +2.4 87 +5  1024.8  -0.1  749  297           
00 19.11.18 050 (СВ) 10 км    ясно 
+3 +1.4 89 +4  1024.7  -0.2  749  298           
03 19.11.18 050 (СВ) 10 км    8/8 1000 м 
[Sc]
+4.2 +2.2 87 +5  1024.4  -0.2  748  297           
06 19.11.18 160 (Ю) 10 км    8/8 1000 м 
[Sc]
+10.3 +6.2 76 +10  1023.8  748  290  +2.8         
09 19.11.18 180 (Ю) 10 км    ясно 
+15.8 +7.6 58 +16  1022.3  -1  748  284           
12 19.11.18 230 (ЮЗ) 10 км    8/8 1000 м 
[Sc]
+16.2 +7.4 56 +17  1022.3  748  283           
15 19.11.18 тихо ()   40000 м    н/о 
+13.2 +7.6 69 +13  1021.7  0.5  747  286           
18 19.11.18 320 (СЗ) 4000 м  слаб. ливневой дождь  10/10 600 м кучево-дожд. 
[Cb cap]
+10.8 +8 83 +11  1024.5  -1.6  749  289    +16.4       
21 19.11.18 290 (З) 10 км  {ливн. осадки}  10/10 600 м кучево-дожд. 
[Cb cap]
+8.6 +6.8 88 +9  1026.4  1.7  750  292           
00 20.11.18 290 (З) 10 км  {ливн. осадки}  9/9 1000 м 
[Sc]
+6.6 +3.5 81 +6  1027.8  751  295           
03 20.11.18 320 (СЗ) 10 км    9/9 1000 м 
[Sc]
+5.7 +3.3 85 +7  1029.6  1.8  752  296         
06 20.11.18 110 (В) 10 км    5/5 1000 м 
[Sc]
+8 +4.8 80 +9  1030  0.5  753  294  +5.5       
09 20.11.18 050 (СВ) 10 км    8/0 верхняя 
[Ci ing]
+11.2 +5.1 66 +11  1028.8  -0.9  752  290           
12 20.11.18 110 (В) 10 км    4/0 верхняя 
[Ci sp]
+10.7 +4.8 67 +11  1028.1  -0.7  752  291           
15 20.11.18 090 (В) 10 км    ясно 
+7.4 +5.6 88 +8  1028  -0.4  751  294    +11.4       
18 20.11.18 090 (В) 10 км    ясно 
+5 +4.1 94 +6  1027.3  -0.9  751  296    +11.4       
21 20.11.18 070 (В) 10 км    ясно 
+4.8 +3.6 92 +4  1024.8  -2.4  749  296           
00 21.11.18 090 (В) 10 км    ясно 
+4.6 +2.9 89 +4  1021.6  -3.2  746  295           
03 21.11.18 070 (В) 10 км    8/8 1000 м 
[Sc]
+4.9 +3.5 91 +6  1019.3  -2.2  745  294           
06 21.11.18 250 (З) 10 км    9/9 1000 м 
[Sc]
+8.4 +4.8 78 +8  1018.1  -0.9  744  290  +4.5         
09 21.11.18 050 (СВ) 10 км  слаб. ливневой дождь  10/10 600 м кучево-дожд. 
[Cb cap]
+8 +6.7 91 +8  1014.9  -3.1  742  289           
12 21.11.18 110 (В) 10 км  {ливн. осадки}  9/9 1000 м 
[Sc]
+9.8 +7.3 84 +9  1011.3  -3.4  739  286           
Время (UTC), дата Ветер
(°,м/с) 
Видим.   Явления Облачность Т
(°С)
Тd
(°С)
f(%) Тe
(°С)
Pmin
(гПа)
dP
(гПа)
Po
(мм)
O2
(г/м3)
Тmin Tmax R s Состояние
почвы

Для получения пояснительной информации подведите курсор к названию столбца.

ПОГОДА в Бырдалыке - архив

Всё, что Вы хотите узнать о погоде в Бырдалыке - удобно и подробно!

Выберите нужную дату (начиная с 1 января 2015* года) и нажмите кнопку "Найти".
Будут отображены архивные сводки погоды по пункту Бырдалык, начиная с указанной даты.


Отображать данные в формате CSV (для использования в таблицах Excel)


Внимание! Наш архив погоды предназначен исключительно для личного некоммерческого использования в познавательных целях. Если Вам необходимы официальные справки о состоянии погоды (для производственных, юридических, коммерческих и т.п. целей), обращайтесь в органы Росгидромета.

*Примечание: данная дата относится к архиву по метеостанциям СССР (Россия, СНГ, Балтия).
Архив по метеостанциям Зарубежной Европы и Азии (кроме Китая) хранится 10 дней, по другим регионам земного шара (Китай, Африка, Америка, Австралия, Океания) - 1 день.

Бырдалык - район местоположения метеостанции


Название, широта, долгота, высота метеостанции:
Бырдалык 38.5°ш. 64.4°д. 212 м над ур. моря [Туркменистан]

Дополнительная информация

В oтличие oт бoльшинства пoгoдных сайтoв мы публикуем пoдрoбную метеoинфoрмацию в детальнoм прoфессиoнальнoм фoрмате.

Характеристики температуры и влажнoсти вoздуха измеряются на высoте 2 м в тени вдали oт зданий и деревьев.
Скoрoсть ветра измеряется на высoте 10 м (на урoвне рoста челoвека скoрoсть ветра ниже в 1.5-2 раза). Если метеoстанция нахoдится в гoрoде или в лесу, тo скoрoсть ветра занижена на 2-4 м/с пo сравнению с oткрытым местoм. Скoрoсть ветра над акватoриями крупных рек и oзёр, а также на вершинах хoлмoв на 2-5 м/с выше, чем в oбычных услoвиях.
Атмoсфернoе давление в разных тoчках местнoсти мoжет значительнo oтличаться oт давления на метеoстанции, в зависимoсти oт услoвий рельефа (при пoдъёме на 10 м давление пoнижается примернo на 1 мм рт.ст.).